FW5359 Weather Reports


Display with metric or nautical units.
time (UTC)temp
F
wind
direction
speed
MPH
gust
MPH
rain 1hr
in
rain 24hr
in
rain mn
in
humidity
%
barometer
mb
20260902040538 86 130 2.0 8.0 0.00 0.00 0.00 62 1016.5
20260902040308 86 109 3.0 9.0 0.00 0.00 0.00 62 1016.4
20260902035537 86 155 2.0 9.0 0.00 0.00 0.00 62 1016.4
20260902035037 87 119 2.0 7.0 0.00 0.00 0.00 62 1016.4
20260902034537 87 122 2.0 7.0 0.00 0.00 0.00 62 1016.4
20260902034034 87 104 2.0 7.0 0.00 0.00 0.00 62 1016.3
20260902033534 87 107 2.0 6.0 0.00 0.00 0.00 62 1016.2
20260902033034 87 111 1.0 6.0 0.00 0.00 0.00 61 1016.2
20260902032534 87 111 1.0 6.0 0.00 0.00 0.00 61 1016.1
20260902032035 87 115 2.0 6.0 0.00 0.00 0.00 61 1016.1
20260902031535 86 110 1.0 4.0 0.00 0.00 0.00 61 1016.0
20260902031040 86 111 1.0 3.0 0.00 0.00 0.00 60 1016.0
20260902030532 86 111 1.0 3.0 0.00 0.00 0.00 60 1015.9
20260902030030 86 111 1.0 2.0 0.00 0.00 0.00 60 1015.9
20260902025800 86 111 1.0 3.0 0.00 0.00 0.00 59 1015.8
20260902025030 86 111 0.0 3.0 0.00 0.00 0.00 59 1015.7
20260902024525 86 111 0.0 0.0 0.00 0.00 0.00 59 1015.6
20260902023513 86 111 0.0 0.0 0.00 0.00 0.00 58 1015.4
20260902023009 86 111 0.0 0.0 0.00 0.00 0.00 57 1015.3
20260902022501 87 111 0.0 0.0 0.00 0.01 0.00 56 1015.3
20260902022225 87 111 0.0 0.0 0.00 0.01 0.00 55 1015.0
20260902021449 87 111 0.0 0.0 0.00 0.01 0.00 55 1014.8
20260902020942 87 111 0.0 0.0 0.00 0.01 0.00 54 1014.8
20260902020437 88 111 0.0 0.0 0.00 0.01 0.00 53 1014.7
20260902020201 88 111 0.0 0.0 0.00 0.01 0.00 53 1014.6
20260902015424 88 111 0.0 0.0 0.00 0.01 0.00 52 1014.5
20260902014919 89 111 0.0 0.0 0.00 0.01 0.00 52 1014.4
20260902014413 89 111 0.0 0.0 0.00 0.01 0.00 51 1014.4
20260902014137 89 111 0.0 0.0 0.00 0.01 0.00 51 1014.4
20260902013401 89 111 0.0 0.0 0.00 0.01 0.00 50 1014.3
20260902012855 90 111 0.0 0.0 0.00 0.01 0.00 50 1014.3
20260902012349 90 111 0.0 0.0 0.00 0.01 0.00 49 1014.3
20260902012113 90 111 0.0 0.0 0.00 0.01 0.00 49 1014.3
20260902011336 90 111 0.0 0.0 0.00 0.01 0.00 49 1014.3
20260902010831 91 111 0.0 0.0 0.00 0.01 0.00 48 1014.2
20260902010324 91 111 0.0 0.0 0.00 0.01 0.00 48 1014.2
20260902005819 91 111 0.0 0.0 0.00 0.01 0.00 48 1014.2
20260902005317 91 111 0.0 0.0 0.00 0.01 0.00 48 1014.1
20260902004806 92 111 0.0 0.0 0.00 0.01 0.00 48 1014.1
20260902004301 92 111 0.0 0.0 0.00 0.01 0.00 47 1014.1
20260902004025 92 111 0.0 0.0 0.00 0.01 0.00 47 1014.1
20260902003249 93 111 0.0 0.0 0.00 0.01 0.00 47 1014.2
20260902002743 93 111 0.0 0.0 0.00 0.01 0.00 46 1014.1
20260902002237 93 111 0.0 2.0 0.00 0.01 0.00 46 1014.1
20260902001731 93 111 0.0 3.0 0.00 0.01 0.00 46 1014.1
20260902001225 94 111 1.0 4.0 0.00 0.01 0.00 46 1014.1
20260902000718 94 110 1.0 6.0 0.00 0.01 0.00 45 1014.1
20260902000444 94 113 1.0 6.0 0.00 0.01 0.00 45 1014.1
20260901235707 95 112 1.0 6.0 0.00 0.01 0.00 44 1014.1
20260901235201 95 107 2.0 6.0 0.00 0.01 0.00 44 1014.1
20260901234922 95 129 1.0 5.0 0.00 0.01 0.00 43 1014.1
20260901234146 96 160 1.0 5.0 0.00 0.01 0.00 43 1014.2
20260901233640 96 161 1.0 5.0 0.00 0.01 0.00 42 1014.2
20260901233140 96 161 2.0 6.0 0.00 0.01 0.00 42 1014.2
20260901232638 96 162 2.0 7.0 0.00 0.01 0.00 42 1014.2
20260901232135 96 164 2.0 7.0 0.00 0.01 0.00 41 1014.3
20260901231636 96 167 2.0 8.0 0.00 0.01 0.00 41 1014.3
20260901231408 96 116 2.0 8.0 0.00 0.01 0.00 41 1014.2
20260901230634 96 98 2.0 6.0 0.00 0.01 0.00 41 1014.3
20260901230134 96 123 2.0 8.0 0.00 0.01 0.00 41 1014.3
20260901225904 96 142 2.0 8.0 0.00 0.01 0.00 41 1014.4
20260901225134 96 80 1.0 5.0 0.00 0.01 0.00 41 1014.4
20260901224905 96 59 1.0 4.0 0.00 0.01 0.00 41 1014.4
20260901224134 96 122 2.0 7.0 0.00 0.01 0.00 41 1014.4
20260901223634 96 126 2.0 7.0 0.00 0.01 0.00 41 1014.4
20260901223134 96 168 2.0 8.0 0.00 0.01 0.00 40 1014.4
20260901222633 97 130 2.0 8.0 0.00 0.01 0.00 40 1014.3
20260901222133 97 88 1.0 4.0 0.00 0.01 0.00 39 1014.3
20260901221634 97 95 1.0 4.0 0.00 0.01 0.00 41 1014.3
20260901221134 97 96 2.0 8.0 0.00 0.01 0.00 40 1014.4
20260901220905 97 136 2.0 8.0 0.00 0.01 0.00 40 1014.4
20260901220134 97 109 3.0 9.0 0.00 0.01 0.00 40 1014.4
20260901215639 97 113 3.0 9.0 0.00 0.01 0.00 41 1014.3
20260901215135 97 150 2.0 8.0 0.00 0.01 0.00 41 1014.4
20260901214636 97 156 2.0 8.0 0.00 0.01 0.00 42 1014.4
20260901214137 97 171 2.0 8.0 0.00 0.01 0.00 41 1014.5
20260901213634 96 98 3.0 9.0 0.00 0.01 0.00 42 1014.5
20260901213131 97 105 2.0 9.0 0.00 0.01 0.00 43 1014.6
20260901212629 96 108 2.0 7.0 0.00 0.01 0.00 42 1014.7
20260901212127 97 120 3.0 8.0 0.00 0.01 0.00 42 1014.7
20260901211626 97 85 2.0 8.0 0.00 0.01 0.00 43 1014.8
20260901211129 96 11 1.0 4.0 0.00 0.01 0.00 43 1014.8
20260901210625 96 5 1.0 5.0 0.00 0.01 0.00 42 1014.9
20260901205626 96 163 3.0 8.0 0.00 0.01 0.00 41 1015.2
20260901205126 96 164 3.0 9.0 0.00 0.01 0.00 42 1015.4
20260901204626 97 182 1.0 9.0 0.00 0.01 0.00 42 1015.4
20260901204123 96 89 1.0 5.0 0.00 0.01 0.00 44 1015.3
20260901203853 96 88 2.0 5.0 0.00 0.01 0.00 43 1015.4
20260901203117 96 172 2.0 8.0 0.00 0.01 0.00 43 1015.6
20260901202610 96 169 2.0 8.0 0.00 0.01 0.00 43 1015.7
20260901202337 96 180 2.0 7.0 0.00 0.01 0.00 43 1015.7
20260901201559 95 80 1.0 7.0 0.00 0.01 0.00 44 1015.8
20260901201053 95 102 1.0 6.0 0.00 0.01 0.00 44 1015.8
20260901200547 94 123 2.0 6.0 0.00 0.01 0.00 44 1015.9
20260901200041 95 49 2.0 7.0 0.00 0.01 0.00 44 1016.1
20260901195534 95 132 2.0 7.0 0.00 0.01 0.00 44 1016.1
20260901195029 95 111 1.0 6.0 0.00 0.01 0.00 43 1016.1
20260901194754 95 286 1.0 6.0 0.00 0.01 0.00 44 1016.1
20260901194017 95 107 2.0 7.0 0.00 0.01 0.00 44 1016.2
20260901193742 95 128 1.0 7.0 0.00 0.01 0.00 45 1016.3
20260901193005 94 128 1.0 5.0 0.00 0.01 0.00 45 1016.3
20260901192459 94 168 2.0 9.0 0.00 0.01 0.00 44 1016.4
20260901191953 94 167 2.0 9.0 0.00 0.01 0.00 44 1016.5
20260901191447 94 111 1.0 7.0 0.00 0.01 0.00 45 1016.5
20260901190941 94 214 2.0 8.0 0.00 0.01 0.00 45 1016.6
20260901190705 94 234 2.0 8.0 0.00 0.01 0.00 46 1016.7
20260901185929 94 153 2.0 6.0 0.00 0.01 0.00 45 1016.8
20260901185423 94 101 2.0 6.0 0.00 0.01 0.00 46 1016.9
20260901184917 94 135 1.0 7.0 0.00 0.01 0.00 47 1017.0
20260901184411 93 134 1.0 7.0 0.00 0.01 0.00 46 1017.1
20260901184136 93 217 2.0 8.0 0.00 0.01 0.00 45 1017.1
20260901183359 93 219 3.0 9.0 0.00 0.01 0.00 45 1017.2
20260901182853 94 150 2.0 10.0 0.00 0.01 0.00 44 1017.4
20260901182617 93 172 1.0 10.0 0.00 0.01 0.00 47 1017.4
20260901181841 93 169 1.0 5.0 0.00 0.01 0.00 50 1017.5
20260901181335 92 240 2.0 6.0 0.00 0.01 0.00 47 1017.5
20260901180829 92 165 3.0 8.0 0.00 0.01 0.00 45 1017.7
20260901180323 92 165 2.0 8.0 0.00 0.01 0.00 49 1017.8
20260901175817 92 219 2.0 6.0 0.00 0.01 0.00 50 1017.8
20260901175311 92 185 1.0 7.0 0.00 0.01 0.00 50 1017.9
20260901174805 92 149 2.0 7.0 0.00 0.01 0.00 49 1018.1
20260901174259 91 129 2.0 8.0 0.00 0.01 0.00 50 1018.1
20260901173753 91 128 2.0 8.0 0.00 0.01 0.00 50 1018.1
20260901173246 92 109 2.0 7.0 0.00 0.01 0.00 51 1018.2
20260901172741 92 124 1.0 7.0 0.00 0.01 0.00 49 1018.2
20260901172236 91 112 1.0 4.0 0.00 0.01 0.00 51 1018.4
20260901171729 91 140 2.0 9.0 0.00 0.01 0.00 51 1018.3
20260901171223 91 142 3.0 9.0 0.00 0.01 0.00 49 1018.4
20260901170717 91 149 1.0 8.0 0.00 0.01 0.00 52 1018.4
20260901170211 91 129 0.0 3.0 0.00 0.01 0.00 54 1018.5
20260901165705 91 129 1.0 6.0 0.00 0.01 0.00 52 1018.5
20260901165429 91 129 1.0 6.0 0.00 0.01 0.00 51 1018.6
20260901164653 90 125 1.0 6.0 0.00 0.01 0.00 54 1018.6
20260901163641 89 0 1.0 5.0 0.00 0.01 0.00 55 1018.5
20260901163135 89 166 1.0 5.0 0.00 0.01 0.00 57 1018.4
20260901162629 89 165 1.0 4.0 0.00 0.01 0.00 60 1018.4
20260901162122 88 167 2.0 7.0 0.00 0.01 0.00 57 1018.6
20260901161618 88 167 2.0 7.0 0.00 0.01 0.00 55 1018.7
20260901161341 89 107 1.0 6.0 0.00 0.01 0.00 58 1018.7
20260901160611 89 109 1.0 5.0 0.00 0.01 0.00 61 1018.6
20260901160111 89 140 1.0 6.0 0.00 0.01 0.00 61 1018.6
20260901155839 88 165 1.0 6.0 0.00 0.01 0.00 62 1018.5
20260901155109 88 164 1.0 4.0 0.00 0.01 0.00 63 1018.5
20260901154609 87 165 1.0 6.0 0.00 0.01 0.00 64 1018.6
20260901153609 87 111 1.0 5.0 0.00 0.01 0.00 64 1018.5
20260901153108 87 128 1.0 4.0 0.00 0.01 0.00 64 1018.5
20260901152609 87 131 1.0 6.0 0.00 0.01 0.00 67 1018.5
20260901152105 86 132 1.0 6.0 0.00 0.01 0.00 66 1018.5
20260901151605 86 167 0.0 5.0 0.00 0.01 0.00 68 1018.4
20260901151105 86 169 0.0 4.0 0.00 0.01 0.00 69 1018.5
20260901150604 85 169 0.0 5.0 0.00 0.01 0.00 69 1018.5
20260901150104 85 169 1.0 5.0 0.00 0.01 0.00 69 1018.5
20260901145104 84 123 1.0 5.0 0.00 0.01 0.00 70 1018.5
20260901144605 84 159 2.0 6.0 0.00 0.01 0.00 70 1018.5
20260901144105 84 162 1.0 6.0 0.00 0.01 0.00 71 1018.5
20260901143604 84 162 0.0 5.0 0.00 0.01 0.00 75 1018.5
20260901143104 84 163 0.0 0.0 0.00 0.01 0.00 76 1018.5
20260901142605 83 163 0.0 2.0 0.00 0.01 0.00 75 1018.4
20260901142101 83 163 1.0 2.0 0.00 0.01 0.00 76 1018.4
20260901141558 83 163 1.0 5.0 0.00 0.01 0.00 77 1018.5
20260901141057 83 163 0.0 5.0 0.00 0.01 0.00 78 1018.4
20260901140828 82 164 0.0 0.0 0.00 0.01 0.00 78 1018.5
20260901140056 82 164 0.0 0.0 0.00 0.01 0.00 79 1018.5
20260901135555 82 164 0.0 0.0 0.00 0.01 0.00 81 1018.5
20260901135055 81 164 0.0 0.0 0.00 0.01 0.00 81 1018.5
20260901134555 81 164 0.0 0.0 0.00 0.01 0.00 83 1018.3
20260901134053 80 164 0.0 0.0 0.00 0.01 0.00 84 1018.3
20260901133551 80 164 0.0 0.0 0.00 0.01 0.00 84 1018.3
20260901133321 80 164 0.0 0.0 0.00 0.01 0.00 85 1018.3
20260901132551 79 164 0.0 0.0 0.00 0.01 0.00 86 1018.3
20260901132049 78 164 0.0 0.0 0.00 0.01 0.00 88 1018.3
20260901131547 77 164 0.0 0.0 0.00 0.01 0.00 89 1018.3
20260901131046 76 164 0.0 0.0 0.00 0.01 0.00 90 1018.2
20260901130540 76 164 0.0 0.0 0.00 0.01 0.00 91 1018.1
20260901130033 75 164 0.0 0.0 0.00 0.01 0.00 91 1018.1
20260901125758 75 164 0.0 0.0 0.00 0.01 0.00 91 1017.9
20260901125021 75 164 0.0 0.0 0.00 0.01 0.00 91 1017.9
20260901124516 75 164 0.0 0.0 0.00 0.01 0.00 90 1017.9
20260901124010 75 164 0.0 0.0 0.00 0.01 0.00 90 1017.8
20260901123504 75 164 0.0 0.0 0.00 0.01 0.00 90 1017.9
20260901122958 75 164 0.0 0.0 0.00 0.01 0.00 90 1017.8
20260901122452 75 164 0.0 0.0 0.00 0.01 0.00 90 1017.8
20260901121946 75 164 0.0 0.0 0.00 0.01 0.00 90 1017.8
20260901121440 75 164 0.0 0.0 0.00 0.01 0.00 90 1017.8
20260901120934 75 164 0.0 0.0 0.00 0.01 0.00 90 1017.8
20260901115922 76 164 0.0 0.0 0.00 0.01 0.00 90 1017.7
20260901115416 76 164 0.0 0.0 0.00 0.01 0.00 90 1017.8
20260901114910 76 164 0.0 0.0 0.00 0.01 0.00 90 1017.8
20260901114634 76 164 0.0 0.0 0.00 0.01 0.00 90 1017.8
20260901114128 76 164 0.0 0.0 0.00 0.01 0.00 89 1017.8
20260901113352 76 164 0.0 0.0 0.00 0.01 0.00 89 1017.8
20260901113116 76 164 0.0 0.0 0.00 0.01 0.00 89 1017.8
20260901112340 76 164 0.0 0.0 0.00 0.01 0.00 88 1017.8
20260901112105 76 164 0.0 0.0 0.00 0.01 0.00 89 1017.6
20260901111327 76 164 0.0 0.0 0.00 0.01 0.00 89 1017.6
20260901110821 77 164 0.0 0.0 0.00 0.01 0.00 88 1017.6
20260901110316 77 164 0.0 0.0 0.00 0.01 0.00 88 1017.6
20260901110040 77 164 0.0 0.0 0.00 0.01 0.00 88 1017.6
20260901105305 77 164 0.0 0.0 0.00 0.01 0.00 88 1017.6
20260901105028 77 164 0.0 0.0 0.00 0.01 0.00 88 1017.6
20260901104252 77 164 0.0 0.0 0.00 0.01 0.00 88 1017.6
20260901103746 77 164 0.0 2.0 0.00 0.01 0.00 88 1017.6
20260901103240 77 164 0.0 2.0 0.00 0.01 0.00 88 1017.7
20260901102734 77 164 0.0 4.0 0.00 0.01 0.00 87 1017.7
20260901102228 78 164 0.0 4.0 0.00 0.01 0.00 87 1017.7
20260901101722 78 163 0.0 2.0 0.00 0.01 0.00 87 1017.7
20260901101216 78 163 0.0 1.0 0.00 0.01 0.00 87 1017.7
20260901100214 78 163 0.0 5.0 0.00 0.01 0.00 87 1017.8
20260901095714 78 162 0.0 2.0 0.00 0.01 0.00 87 1017.7
20260901095214 78 162 0.0 4.0 0.00 0.01 0.00 86 1017.8
20260901094714 78 161 0.0 4.0 0.00 0.01 0.00 86 1017.7
20260901094214 78 161 0.0 4.0 0.00 0.01 0.00 86 1017.6
20260901093714 78 161 1.0 4.0 0.00 0.01 0.00 86 1017.6
20260901093213 78 161 1.0 4.0 0.00 0.01 0.00 86 1017.7
20260901092714 78 161 1.0 5.0 0.00 0.01 0.00 86 1017.8
20260901092214 78 161 0.0 5.0 0.00 0.01 0.00 86 1017.8
20260901091714 78 160 1.0 5.0 0.00 0.01 0.00 86 1017.8
20260901091444 78 160 1.0 5.0 0.00 0.01 0.00 86 1017.8
20260901090714 78 159 0.0 2.0 0.00 0.01 0.00 85 1017.9
20260901090214 78 159 0.0 2.0 0.00 0.01 0.00 85 1017.9
20260901085710 78 159 0.0 2.0 0.00 0.01 0.00 85 1017.9
20260901085210 78 159 0.0 2.0 0.00 0.01 0.00 85 1017.9
20260901084710 78 159 0.0 2.0 0.00 0.01 0.00 85 1017.9
20260901084441 78 159 1.0 4.0 0.00 0.01 0.00 85 1017.9
20260901083710 78 159 0.0 5.0 0.00 0.01 0.00 85 1017.8
20260901083210 78 159 0.0 5.0 0.00 0.01 0.00 84 1017.9
20260901082940 78 159 0.0 4.0 0.00 0.01 0.00 84 1017.9
20260901082210 78 159 0.0 4.0 0.00 0.01 0.00 84 1017.8
20260901081710 78 159 1.0 4.0 0.00 0.01 0.00 83 1017.9
20260901081210 78 158 1.0 5.0 0.00 0.01 0.00 83 1017.8
20260901080710 79 158 1.0 5.0 0.00 0.01 0.00 83 1017.8
20260901080210 79 158 1.0 6.0 0.00 0.01 0.00 83 1017.7
20260901075707 79 158 2.0 6.0 0.00 0.01 0.00 83 1017.7
20260901075207 79 159 2.0 6.0 0.00 0.01 0.00 82 1017.7
20260901074707 79 157 2.0 7.0 0.00 0.01 0.00 82 1017.8
20260901074206 79 157 2.0 7.0 0.00 0.01 0.00 82 1017.7
20260901073936 79 155 1.0 6.0 0.00 0.01 0.00 81 1017.7
20260901073206 79 167 1.0 6.0 0.00 0.01 0.00 81 1017.8
20260901072704 79 171 1.0 6.0 0.00 0.01 0.00 80 1017.8
20260901072204 79 180 2.0 5.0 0.00 0.01 0.00 80 1017.8
20260901071935 80 216 2.0 5.0 0.00 0.01 0.00 79 1017.9
20260901071203 80 167 1.0 5.0 0.00 0.01 0.00 79 1018.1
20260901070149 80 167 2.0 6.0 0.00 0.01 0.00 78 1018.1
20260901065643 80 167 2.0 6.0 0.00 0.01 0.00 78 1017.9
20260901065137 80 166 2.0 7.0 0.00 0.01 0.00 78 1017.8
20260901064631 80 165 2.0 7.0 0.00 0.01 0.00 77 1017.7
20260901064355 80 200 2.0 8.0 0.00 0.01 0.00 77 1017.7
20260901063619 80 171 2.0 8.0 0.00 0.01 0.00 77 1017.7
20260901063113 80 207 1.0 7.0 0.00 0.01 0.00 76 1017.7
20260901062606 81 164 2.0 5.0 0.00 0.01 0.00 76 1017.7
20260901062101 81 164 2.0 7.0 0.00 0.01 0.00 76 1017.7
20260901061554 81 164 2.0 7.0 0.00 0.01 0.00 75 1017.6
20260901061053 81 163 1.0 6.0 0.00 0.01 0.00 75 1017.6
20260901060554 81 158 2.0 6.0 0.00 0.01 0.00 74 1017.6
20260901060054 81 164 2.0 6.0 0.00 0.01 0.00 74 1017.5
20260901055552 81 168 2.0 6.0 0.00 0.01 0.00 73 1017.5
20260901055049 81 169 2.0 8.0 0.00 0.01 0.00 73 1017.3
20260901054549 81 148 1.0 8.0 0.00 0.01 0.00 72 1017.4
20260901054049 82 146 1.0 5.0 0.00 0.01 0.00 72 1017.4
20260901053547 82 145 1.0 7.0 0.00 0.01 0.00 72 1017.4
20260901053045 82 145 2.0 7.0 0.00 0.01 0.00 71 1017.3
20260901052543 82 145 2.0 7.0 0.00 0.01 0.00 71 1017.3
20260901052042 82 157 3.0 7.0 0.00 0.01 0.00 71 1017.2
20260901051539 82 148 2.0 7.0 0.00 0.01 0.00 71 1017.2
20260901051037 82 162 2.0 8.0 0.00 0.01 0.00 71 1017.3
20260901050810 82 150 2.0 8.0 0.00 0.01 0.00 70 1017.2
20260901050037 82 161 2.0 6.0 0.00 0.01 0.00 70 1017.3
20260901045536 83 158 2.0 9.0 0.00 0.01 0.01 70 1017.2
20260901045036 83 158 1.0 9.0 0.00 0.01 0.01 69 1017.3
20260901044533 83 134 1.0 4.0 0.00 0.01 0.01 69 1017.2
20260901044032 83 134 1.0 4.0 0.00 0.01 0.01 69 1017.1
20260901043532 83 134 1.0 7.0 0.00 0.01 0.01 69 1017.0
20260901043033 83 154 1.0 7.0 0.00 0.01 0.01 69 1017.1
20260901042533 83 188 1.0 3.0 0.00 0.01 0.01 69 1017.0
20260901042033 83 188 0.0 3.0 0.00 0.01 0.01 69 1017.0
20260901041533 83 189 1.0 5.0 0.00 0.01 0.01 69 1016.9
20260901040804 84 195 2.0 7.0 0.00 0.01 0.01 69 1016.7